This is the latest recevied weather packets stored in our database for station/object WX7FGZ-5. If no packets are shown the sender has not sent any weather packets the latest 10 day(s).
| Time | Temp. | Humidity | Pressure | Rain* | Wind** | Luminosity | Snow |
|---|---|---|---|---|---|---|---|
| 1778003703 | 9.44° C | 55% | 1016.8 hPa | 0 mm | - | 295 W/m² | - |
| 1778003403 | 9.44° C | 52% | 1016.7 hPa | 0 mm | - | 264 W/m² | - |
| 1778003277 | 9.44° C | 52% | 1016.7 hPa | 0 mm | - | 1106 W/m² | - |
| 1778003102 | 9.44° C | 52% | 1016.7 hPa | 0 mm | - | 1106 W/m² | - |
| 1778002503 | 8.89° C | 49% | 1016.8 hPa | 0 mm | - | 279 W/m² | - |
| 1778002203 | 9.44° C | 47% | 1016.8 hPa | 0 mm | - | 329 W/m² | - |
| 1778002031 | 9.44° C | 46% | 1016.7 hPa | 0 mm | - | 1035 W/m² | - |
| 1778001902 | 9.44° C | 46% | 1016.7 hPa | 0 mm | - | 1035 W/m² | - |
| 1778001807 | 8.89° C | 44% | 1016.6 hPa | 0 mm | - | 988 W/m² | - |
| 1778001616 | 8.89° C | 44% | 1016.6 hPa | 0 mm | - | 988 W/m² | - |
| 1778001003 | 8.33° C | 48% | 1016.7 hPa | 0 mm | - | 904 W/m² | - |
| 1778000703 | 8.33° C | 50% | 1016.7 hPa | 0 mm | - | 933 W/m² | - |
| 1778000402 | 7.78° C | 48% | 1016.7 hPa | 0 mm | - | 362 W/m² | - |
| 1778000103 | 8.33° C | 49% | 1016.8 hPa | 0 mm | - | 350 W/m² | - |
| 1777999803 | 8.33° C | 50% | 1016.9 hPa | 0 mm | - | 427 W/m² | - |
| 1777998903 | 8.33° C | 50% | 1017.2 hPa | 0 mm | - | 431 W/m² | - |
| 1777998606 | 8.89° C | 54% | 1017.3 hPa | 0 mm | - | 1044 W/m² | - |
| 1777998452 | 8.33° C | 54% | 1017.4 hPa | 0 mm | - | 1005 W/m² | - |
| 1777998343 | 8.33° C | 54% | 1017.4 hPa | 0 mm | - | 1005 W/m² | - |
| 1777998303 | 8.33° C | 54% | 1017.4 hPa | 0 mm | - | 1005 W/m² | - |
| 1777998283 | 7.78° C | 56% | 1017.3 hPa | 0 mm | - | 1007 W/m² | - |
| 1777998003 | 7.78° C | 56% | 1017.3 hPa | 0 mm | - | 1007 W/m² | - |
| 1777997404 | 7.22° C | 54% | 1017.2 hPa | 0 mm | - | 163 W/m² | - |
| 1777997134 | 7.22° C | 52% | 1017.2 hPa | 0 mm | - | 279 W/m² | - |
| 1777997103 | 7.22° C | 52% | 1017.2 hPa | 0 mm | - | 279 W/m² | - |
* Rain latest hour (hover to see other rain measurements)
** Current wind speed in m/s (hover to see current wind gust speed)